Flag for U.S.A. Weather past 2 weeks in Oakland, California, U.S.A.

Now
55 °F

Scattered clouds.


Feels Like: 54 °F
Forecast: 51 / 63 °F
Wind: 5 mph from East

Location: Metro Oakland International Airport


UV Index: 0 (Low)

Visibility: 9 mi


Pressure: 30.06 "Hg

Humidity: 74%

Dew point: 47 °F

Location of OaklandLocation

Historic Weather in Oakland

°F

Oakland temperature yesterday

Maximum temperature yesterday: 76 °F (at 3:53 PM)
Minimum temperature yesterday: 50 °F (at 4:53 AM)
Average temperature yesterday: 60 °F

Past Weeks' High & Low Weather Summary

 TemperatureHumidityPressure
High78 °F (Apr 7, 2:53 PM)90% (Apr 8, 6:53 AM)30.24 "Hg (Apr 8, 6:53 AM)
Low50 °F (Apr 20, 4:53 AM)33% (Apr 20, 3:53 PM)29.80 "Hg (Apr 17, 4:53 AM)
Average59 °F71%30.01 "Hg
* Reported Apr 6 7:53 AM — Apr 21 7:53 AM, Oakland, Weather by CustomWeather, © 2014

Note: Actual official high and low records may vary slightly from our data, if they occured in-between our weather recording intervals... More about our weather records

Advertising

Historic Weather Conditions — Data for Previous 24 hours

 ConditionsComfort  
Time TempWeatherWind HumidityBarometerVisibility
7:53 AM
Apr 21
55 °FScattered clouds.5 mph74%30.06 "Hg9 mi
6:53 AM54 °FPassing clouds.No wind74%30.06 "Hg9 mi
5:53 AM51 °FPassing clouds.5 mph80%30.06 "Hg9 mi
4:53 AM51 °FClear.6 mph80%30.07 "Hg10 mi
3:53 AM52 °FClear.3 mph80%30.07 "Hg10 mi
2:53 AM52 °FClear.No wind80%30.07 "Hg9 mi
1:53 AM51 °FClear.No wind77%30.09 "Hg9 mi
12:53 AM54 °FClear.No wind74%30.09 "Hg10 mi
11:53 PM
Apr 20
55 °FClear.No wind69%30.09 "Hg10 mi
10:53 PM57 °FPassing clouds.7 mph67%30.09 "Hg10 mi
9:53 PM57 °FPassing clouds.7 mph67%30.09 "Hg10 mi
8:53 PM59 °FPassing clouds.14 mph60%30.08 "Hg10 mi
7:53 PM62 °FPassing clouds.8 mph58%30.06 "Hg10 mi
6:53 PM64 °FPassing clouds.8 mph52%30.06 "Hg10 mi
5:53 PM67 °FPassing clouds.8 mph45%30.08 "Hg10 mi
4:53 PM70 °FSunny.16 mph39%30.07 "Hg10 mi
3:53 PM76 °FSunny.15 mph33%30.07 "Hg10 mi
2:53 PM72 °FPassing clouds.5 mph49%30.09 "Hg10 mi
1:53 PM71 °FScattered clouds.7 mph47%30.10 "Hg10 mi
12:53 PM70 °FScattered clouds.8 mph47%30.12 "Hg10 mi
11:53 AM67 °FScattered clouds.8 mph55%30.14 "Hg10 mi
10:53 AM62 °FScattered clouds.6 mph70%30.15 "Hg10 mi
9:53 AM60 °FScattered clouds.5 mph75%30.15 "Hg10 mi
8:53 AM58 °FScattered clouds.3 mph78%30.15 "Hg10 mi
Weather by CustomWeather, © 2014

See weather overview